Year,Month,Day,Hour,Minute,Value (Times are PST for temperature in C)
2015,04,20,00,00,10.20
2015,04,20,00,01,10.10
2015,04,20,00,02,10.10
2015,04,20,00,03,10.10
2015,04,20,00,04,10.10
2015,04,20,00,05,10.00
2015,04,20,00,06,10.00
2015,04,20,00,07,9.90
2015,04,20,00,08,9.90
2015,04,20,00,09,9.90
2015,04,20,00,10,9.90
2015,04,20,00,11,9.80
2015,04,20,00,12,9.80
2015,04,20,00,13,9.70
2015,04,20,00,14,9.70
2015,04,20,00,15,9.70
2015,04,20,00,16,9.70
2015,04,20,00,17,9.70
2015,04,20,00,18,9.70
2015,04,20,00,19,9.80
2015,04,20,00,20,9.80
2015,04,20,00,21,9.80
2015,04,20,00,22,9.80
2015,04,20,00,23,9.80
2015,04,20,00,24,9.80
2015,04,20,00,25,9.80
2015,04,20,00,26,9.80
2015,04,20,00,27,9.80
2015,04,20,00,28,9.70
2015,04,20,00,29,9.70
2015,04,20,00,30,9.60
2015,04,20,00,31,9.60
2015,04,20,00,32,9.60
2015,04,20,00,33,9.60
2015,04,20,00,34,9.60
2015,04,20,00,35,9.60
2015,04,20,00,36,9.60
2015,04,20,00,37,9.50
2015,04,20,00,38,9.50
2015,04,20,00,39,9.40
2015,04,20,00,40,9.40
2015,04,20,00,41,9.40
2015,04,20,00,42,9.40
2015,04,20,00,43,9.40
2015,04,20,00,44,9.40
2015,04,20,00,45,9.40
2015,04,20,00,46,9.30
2015,04,20,00,47,9.30
2015,04,20,00,48,9.30
2015,04,20,00,49,9.30
2015,04,20,00,50,9.30
2015,04,20,00,51,9.30
2015,04,20,00,52,9.30
2015,04,20,00,53,9.30
2015,04,20,00,54,9.30
2015,04,20,00,55,9.30
2015,04,20,00,56,9.30
2015,04,20,00,57,9.30
2015,04,20,00,58,9.30
2015,04,20,00,59,9.30
2015,04,20,01,00,9.30
2015,04,20,01,01,9.30
2015,04,20,01,02,9.30
2015,04,20,01,03,9.30
2015,04,20,01,04,9.30
2015,04,20,01,05,9.30
2015,04,20,01,06,9.30
2015,04,20,01,07,9.30
2015,04,20,01,08,9.30
2015,04,20,01,09,9.30
2015,04,20,01,10,9.30
2015,04,20,01,11,9.30
2015,04,20,01,12,9.30
2015,04,20,01,13,9.30
2015,04,20,01,14,9.30
2015,04,20,01,15,9.30
2015,04,20,01,16,9.30
2015,04,20,01,17,9.30
2015,04,20,01,18,9.30
2015,04,20,01,19,9.20
2015,04,20,01,20,9.20
2015,04,20,01,21,9.20
2015,04,20,01,22,9.20
2015,04,20,01,23,9.20
2015,04,20,01,24,9.20
2015,04,20,01,25,9.20
2015,04,20,01,26,9.10
2015,04,20,01,27,9.10
2015,04,20,01,28,9.10
2015,04,20,01,29,9.00
2015,04,20,01,30,9.00
2015,04,20,01,31,9.00
2015,04,20,01,32,9.00
2015,04,20,01,33,9.00
2015,04,20,01,34,9.00
2015,04,20,01,35,9.00
2015,04,20,01,36,9.00
2015,04,20,01,37,9.00
2015,04,20,01,38,9.00
2015,04,20,01,39,9.00
2015,04,20,01,40,8.90
2015,04,20,01,41,8.90
2015,04,20,01,42,8.90
2015,04,20,01,43,8.90
2015,04,20,01,44,8.90
2015,04,20,01,45,8.90
2015,04,20,01,46,8.90
2015,04,20,01,47,8.90
2015,04,20,01,48,8.90
2015,04,20,01,49,8.90
2015,04,20,01,50,8.90
2015,04,20,01,51,8.90
2015,04,20,01,52,8.90
2015,04,20,01,53,8.90
2015,04,20,01,54,8.90
2015,04,20,01,55,8.90
2015,04,20,01,56,8.90
2015,04,20,01,57,8.90
2015,04,20,01,58,8.90
2015,04,20,01,59,8.90
2015,04,20,02,00,8.90
2015,04,20,02,01,8.90
2015,04,20,02,02,8.90
2015,04,20,02,03,8.90
2015,04,20,02,04,8.90
2015,04,20,02,05,8.90
2015,04,20,02,06,8.90
2015,04,20,02,07,8.90
2015,04,20,02,08,8.90
2015,04,20,02,09,8.90
2015,04,20,02,10,8.90
2015,04,20,02,11,8.90
2015,04,20,02,12,8.90
2015,04,20,02,13,8.90
2015,04,20,02,14,8.90
2015,04,20,02,15,8.80
2015,04,20,02,16,8.80
2015,04,20,02,17,8.80
2015,04,20,02,18,8.80
2015,04,20,02,19,8.80
2015,04,20,02,20,8.70
2015,04,20,02,21,8.70
2015,04,20,02,22,8.70
2015,04,20,02,23,8.70
2015,04,20,02,24,8.70
2015,04,20,02,25,8.70
2015,04,20,02,26,8.70
2015,04,20,02,27,8.70
2015,04,20,02,28,8.70
2015,04,20,02,29,8.70
2015,04,20,02,30,8.70
2015,04,20,02,31,8.70
2015,04,20,02,32,8.70
2015,04,20,02,33,8.70
2015,04,20,02,34,8.70
2015,04,20,02,35,8.70
2015,04,20,02,36,8.70
2015,04,20,02,37,8.70
2015,04,20,02,38,8.70
2015,04,20,02,39,8.70
2015,04,20,02,40,8.70
2015,04,20,02,41,8.70
2015,04,20,02,42,8.70
2015,04,20,02,43,8.60
2015,04,20,02,44,8.60
2015,04,20,02,45,8.60
2015,04,20,02,46,8.60
2015,04,20,02,47,8.60
2015,04,20,02,48,8.60
2015,04,20,02,49,8.60
2015,04,20,02,50,8.60
2015,04,20,02,51,8.60
2015,04,20,02,52,8.60
2015,04,20,02,53,8.60
2015,04,20,02,54,8.60
2015,04,20,02,55,8.50
2015,04,20,02,56,8.50
2015,04,20,02,57,8.40
2015,04,20,02,58,8.40
2015,04,20,02,59,8.40
2015,04,20,03,00,8.30
2015,04,20,03,01,8.30
2015,04,20,03,02,8.30
2015,04,20,03,03,8.30
2015,04,20,03,04,8.30
2015,04,20,03,05,8.30
2015,04,20,03,06,8.30
2015,04,20,03,07,8.30
2015,04,20,03,08,8.20
2015,04,20,03,09,8.20
2015,04,20,03,10,8.20
2015,04,20,03,11,8.10
2015,04,20,03,12,8.10
2015,04,20,03,13,8.10
2015,04,20,03,14,8.10
2015,04,20,03,15,8.10
2015,04,20,03,16,8.10
2015,04,20,03,17,8.20
2015,04,20,03,18,8.20
2015,04,20,03,19,8.20
2015,04,20,03,20,8.20
2015,04,20,03,21,8.20
2015,04,20,03,22,8.20
2015,04,20,03,23,8.20
2015,04,20,03,24,8.20
2015,04,20,03,25,8.20
2015,04,20,03,26,8.20
2015,04,20,03,27,8.20
2015,04,20,03,28,8.20
2015,04,20,03,29,8.20
2015,04,20,03,30,8.20
2015,04,20,03,31,8.20
2015,04,20,03,32,8.20
2015,04,20,03,33,8.20
2015,04,20,03,34,8.10
2015,04,20,03,35,8.10
2015,04,20,03,36,8.10
2015,04,20,03,37,8.10
2015,04,20,03,38,8.10
2015,04,20,03,39,8.10
2015,04,20,03,40,8.10
2015,04,20,03,41,8.10
2015,04,20,03,42,8.10
2015,04,20,03,43,8.10
2015,04,20,03,44,8.10
2015,04,20,03,45,8.10
2015,04,20,03,46,8.00
2015,04,20,03,47,8.00
2015,04,20,03,48,8.00
2015,04,20,03,49,7.90
2015,04,20,03,50,7.90
2015,04,20,03,51,7.90
2015,04,20,03,52,7.80
2015,04,20,03,53,7.80
2015,04,20,03,54,7.80
2015,04,20,03,55,7.80
2015,04,20,03,56,7.80
2015,04,20,03,57,7.80
2015,04,20,03,58,7.70
2015,04,20,03,59,7.70
2015,04,20,04,00,7.70
2015,04,20,04,01,7.70
2015,04,20,04,02,7.70
2015,04,20,04,03,7.70
2015,04,20,04,04,7.70
2015,04,20,04,05,7.80
2015,04,20,04,06,7.80
2015,04,20,04,07,7.80
2015,04,20,04,08,7.90
2015,04,20,04,09,7.90
2015,04,20,04,10,7.90
2015,04,20,04,11,7.80
2015,04,20,04,12,7.80
2015,04,20,04,13,7.80
2015,04,20,04,14,7.70
2015,04,20,04,15,7.70
2015,04,20,04,16,7.70
2015,04,20,04,17,7.70
2015,04,20,04,18,7.70
2015,04,20,04,19,7.70
2015,04,20,04,20,7.70
2015,04,20,04,21,7.70
2015,04,20,04,22,7.70
2015,04,20,04,23,7.70
2015,04,20,04,24,7.70
2015,04,20,04,25,7.70
2015,04,20,04,26,7.70
2015,04,20,04,27,7.60
2015,04,20,04,28,7.60
2015,04,20,04,29,7.60
2015,04,20,04,30,7.60
2015,04,20,04,31,7.50
2015,04,20,04,32,7.50
2015,04,20,04,33,7.50
2015,04,20,04,34,7.50
2015,04,20,04,35,7.50
2015,04,20,04,36,7.50
2015,04,20,04,37,7.50
2015,04,20,04,38,7.50
2015,04,20,04,39,7.40
2015,04,20,04,40,7.40
2015,04,20,04,41,7.40
2015,04,20,04,42,7.40
2015,04,20,04,43,7.40
2015,04,20,04,44,7.40
2015,04,20,04,45,7.30
2015,04,20,04,46,7.30
2015,04,20,04,47,7.30
2015,04,20,04,48,7.30
2015,04,20,04,49,7.30
2015,04,20,04,50,7.30
2015,04,20,04,51,7.30
2015,04,20,04,52,7.30
2015,04,20,04,53,7.30
2015,04,20,04,54,7.30
2015,04,20,04,55,7.30
2015,04,20,04,56,7.30
2015,04,20,04,57,7.30
2015,04,20,04,58,7.20
2015,04,20,04,59,7.20
2015,04,20,05,00,7.20
2015,04,20,05,01,7.20
2015,04,20,05,02,7.20
2015,04,20,05,03,7.20
2015,04,20,05,04,7.10
2015,04,20,05,05,7.10
2015,04,20,05,06,7.10
2015,04,20,05,07,7.20
2015,04,20,05,08,7.20
2015,04,20,05,09,7.20
2015,04,20,05,10,7.20
2015,04,20,05,11,7.20
2015,04,20,05,12,7.20
2015,04,20,05,13,7.30
2015,04,20,05,14,7.30
2015,04,20,05,15,7.30
2015,04,20,05,16,7.30
2015,04,20,05,17,7.30
2015,04,20,05,18,7.30
2015,04,20,05,19,7.30
2015,04,20,05,20,7.30
2015,04,20,05,21,7.30
2015,04,20,05,22,7.20
2015,04,20,05,23,7.20
2015,04,20,05,24,7.20
2015,04,20,05,25,7.20
2015,04,20,05,26,7.20
2015,04,20,05,27,7.20
2015,04,20,05,28,7.20
2015,04,20,05,29,7.30
2015,04,20,05,30,7.20
2015,04,20,05,31,7.20
2015,04,20,05,32,7.20
2015,04,20,05,33,7.30
2015,04,20,05,34,7.20
2015,04,20,05,35,7.20
2015,04,20,05,36,7.20
2015,04,20,05,37,7.20
2015,04,20,05,38,7.20
2015,04,20,05,39,7.10
2015,04,20,05,40,7.10
2015,04,20,05,41,7.10
2015,04,20,05,42,7.10
2015,04,20,05,43,7.10
2015,04,20,05,44,7.10
2015,04,20,05,45,7.00
2015,04,20,05,46,7.00
2015,04,20,05,47,7.10
2015,04,20,05,48,7.10
2015,04,20,05,49,7.10
2015,04,20,05,50,7.10
2015,04,20,05,51,7.10
2015,04,20,05,52,7.00
2015,04,20,05,53,7.00
2015,04,20,05,54,7.00
2015,04,20,05,55,6.90
2015,04,20,05,56,6.90
2015,04,20,05,57,6.90
2015,04,20,05,58,6.90
2015,04,20,05,59,6.90
2015,04,20,06,00,6.90
2015,04,20,06,01,6.90
2015,04,20,06,02,6.90
2015,04,20,06,03,6.90
2015,04,20,06,04,6.80
2015,04,20,06,05,6.80
2015,04,20,06,06,6.80
2015,04,20,06,07,6.80
2015,04,20,06,08,6.80
2015,04,20,06,09,6.80
2015,04,20,06,10,6.80
2015,04,20,06,11,6.80
2015,04,20,06,12,6.80
2015,04,20,06,13,6.80
2015,04,20,06,14,6.70
2015,04,20,06,15,6.70
2015,04,20,06,16,6.70
2015,04,20,06,17,6.80
2015,04,20,06,18,6.80
2015,04,20,06,19,6.80
2015,04,20,06,20,6.80
2015,04,20,06,21,6.80
2015,04,20,06,22,6.80
2015,04,20,06,23,6.80
2015,04,20,06,24,6.80
2015,04,20,06,25,6.80
2015,04,20,06,26,6.90
2015,04,20,06,27,6.90
2015,04,20,06,28,6.90
2015,04,20,06,29,6.90
2015,04,20,06,30,6.90
2015,04,20,06,31,6.80
2015,04,20,06,32,6.80
2015,04,20,06,33,6.80
2015,04,20,06,34,6.80
2015,04,20,06,35,6.80
2015,04,20,06,36,6.90
2015,04,20,06,37,6.90
2015,04,20,06,38,7.00
2015,04,20,06,39,7.00
2015,04,20,06,40,7.10
2015,04,20,06,41,7.10
2015,04,20,06,42,7.20
2015,04,20,06,43,7.30
2015,04,20,06,44,7.30
2015,04,20,06,45,7.40
2015,04,20,06,46,7.40
2015,04,20,06,47,7.50
2015,04,20,06,48,7.60
2015,04,20,06,49,7.70
2015,04,20,06,50,7.80
2015,04,20,06,51,7.90
2015,04,20,06,52,8.00
2015,04,20,06,53,8.10
2015,04,20,06,54,8.20
2015,04,20,06,55,8.30
2015,04,20,06,56,8.40
2015,04,20,06,57,8.50
2015,04,20,06,58,8.60
2015,04,20,06,59,8.60
2015,04,20,07,00,8.80
2015,04,20,07,01,8.80
2015,04,20,07,02,8.90
2015,04,20,07,03,9.00
2015,04,20,07,04,9.10
2015,04,20,07,05,9.20
2015,04,20,07,06,9.30
2015,04,20,07,07,9.40
2015,04,20,07,08,9.50
2015,04,20,07,09,9.60
2015,04,20,07,10,9.60
2015,04,20,07,11,9.60
2015,04,20,07,12,9.60
2015,04,20,07,13,9.60
2015,04,20,07,14,9.60
2015,04,20,07,15,9.60
2015,04,20,07,16,9.50
2015,04,20,07,17,9.50
2015,04,20,07,18,9.40
2015,04,20,07,19,9.40
2015,04,20,07,20,9.40
2015,04,20,07,21,9.40
2015,04,20,07,22,9.40
2015,04,20,07,23,9.40
2015,04,20,07,24,9.50
2015,04,20,07,25,9.50
2015,04,20,07,26,9.50
2015,04,20,07,27,9.60
2015,04,20,07,28,9.60
2015,04,20,07,29,9.70
2015,04,20,07,30,9.80
2015,04,20,07,31,9.90
2015,04,20,07,32,10.00
2015,04,20,07,33,10.10
2015,04,20,07,34,10.10
2015,04,20,07,35,10.20
2015,04,20,07,36,10.30
2015,04,20,07,37,10.40
2015,04,20,07,38,10.50
2015,04,20,07,39,10.70
2015,04,20,07,40,10.90
2015,04,20,07,41,11.00
2015,04,20,07,42,11.20
2015,04,20,07,43,11.30
2015,04,20,07,44,11.50
2015,04,20,07,45,11.60
2015,04,20,07,46,11.70
2015,04,20,07,47,11.80
2015,04,20,07,48,11.90
2015,04,20,07,49,12.00
2015,04,20,07,50,12.10
2015,04,20,07,51,12.20
2015,04,20,07,52,12.20
2015,04,20,07,53,12.20
2015,04,20,07,54,12.10
2015,04,20,07,55,12.10
2015,04,20,07,56,12.00
2015,04,20,07,57,12.00
2015,04,20,07,58,11.90
2015,04,20,07,59,11.90
2015,04,20,08,00,11.90
2015,04,20,08,01,11.90
2015,04,20,08,02,11.90
2015,04,20,08,03,12.00
2015,04,20,08,04,12.10
2015,04,20,08,05,12.20
2015,04,20,08,06,12.30
2015,04,20,08,07,12.40
2015,04,20,08,08,12.60
2015,04,20,08,09,12.70
2015,04,20,08,10,12.80
2015,04,20,08,11,12.90
2015,04,20,08,12,13.00
2015,04,20,08,13,13.10
2015,04,20,08,14,13.20
2015,04,20,08,15,13.20
2015,04,20,08,16,13.30
2015,04,20,08,17,13.30
2015,04,20,08,18,13.40
2015,04,20,08,19,13.50
2015,04,20,08,20,13.60
2015,04,20,08,21,13.70
2015,04,20,08,22,13.70
2015,04,20,08,23,13.80
2015,04,20,08,24,13.80
2015,04,20,08,25,13.80
2015,04,20,08,26,13.90
2015,04,20,08,27,13.90
2015,04,20,08,28,14.00
2015,04,20,08,29,14.00
2015,04,20,08,30,14.10
2015,04,20,08,31,14.10
2015,04,20,08,32,14.30
2015,04,20,08,33,14.40
2015,04,20,08,34,14.40
2015,04,20,08,35,14.30
2015,04,20,08,36,14.30
2015,04,20,08,37,14.30
2015,04,20,08,38,14.30
2015,04,20,08,39,14.30
2015,04,20,08,40,14.40
2015,04,20,08,41,14.30
2015,04,20,08,42,14.30
2015,04,20,08,43,14.20
2015,04,20,08,44,14.10
2015,04,20,08,45,14.10
2015,04,20,08,46,14.10
2015,04,20,08,47,14.10
2015,04,20,08,48,14.10
2015,04,20,08,49,14.10
2015,04,20,08,50,14.10
2015,04,20,08,51,14.20
2015,04,20,08,52,14.30
2015,04,20,08,53,14.50
2015,04,20,08,54,14.60
2015,04,20,08,55,14.70
2015,04,20,08,56,14.70
2015,04,20,08,57,14.70
2015,04,20,08,58,14.70
2015,04,20,08,59,14.70
2015,04,20,09,00,14.70
2015,04,20,09,01,14.70
2015,04,20,09,02,14.70
2015,04,20,09,03,14.70
2015,04,20,09,04,14.70
2015,04,20,09,05,14.70
2015,04,20,09,06,14.60
2015,04,20,09,07,14.60
2015,04,20,09,08,14.60
2015,04,20,09,09,14.70
2015,04,20,09,10,14.70
2015,04,20,09,11,14.90
2015,04,20,09,12,14.90
2015,04,20,09,13,15.00
2015,04,20,09,14,15.10
2015,04,20,09,15,15.20
2015,04,20,09,16,15.30
2015,04,20,09,17,15.30
2015,04,20,09,18,15.40
2015,04,20,09,19,15.40
2015,04,20,09,20,15.40
2015,04,20,09,21,15.30
2015,04,20,09,22,15.30
2015,04,20,09,23,15.30
2015,04,20,09,24,15.40
2015,04,20,09,25,15.40
2015,04,20,09,26,15.40
2015,04,20,09,27,15.50
2015,04,20,09,28,15.60
2015,04,20,09,29,15.70
2015,04,20,09,30,15.70
2015,04,20,09,31,15.70
2015,04,20,09,32,15.70
2015,04,20,09,33,15.70
2015,04,20,09,34,15.70
2015,04,20,09,35,15.70
2015,04,20,09,36,15.70
2015,04,20,09,37,15.80
2015,04,20,09,38,15.80
2015,04,20,09,39,15.80
2015,04,20,09,40,15.90
2015,04,20,09,41,16.00
2015,04,20,09,42,16.00
2015,04,20,09,43,16.10
2015,04,20,09,44,16.20
2015,04,20,09,45,16.20
2015,04,20,09,46,16.20
2015,04,20,09,47,16.30
2015,04,20,09,48,16.30
2015,04,20,09,49,16.30
2015,04,20,09,50,16.30
2015,04,20,09,51,16.30
2015,04,20,09,52,16.30
2015,04,20,09,53,16.30
2015,04,20,09,54,16.30
2015,04,20,09,55,16.20
2015,04,20,09,56,16.20
2015,04,20,09,57,16.10
2015,04,20,09,58,16.10
2015,04,20,09,59,16.10
2015,04,20,10,00,16.10
2015,04,20,10,01,16.20
2015,04,20,10,02,16.20
2015,04,20,10,03,16.20
2015,04,20,10,04,16.20
2015,04,20,10,05,16.30
2015,04,20,10,06,16.30
2015,04,20,10,07,16.30
2015,04,20,10,08,16.20
2015,04,20,10,09,16.20
2015,04,20,10,10,16.10
2015,04,20,10,11,16.00
2015,04,20,10,12,15.90
2015,04,20,10,13,15.90
2015,04,20,10,14,15.90
2015,04,20,10,15,15.90
2015,04,20,10,16,16.00
2015,04,20,10,17,16.10
2015,04,20,10,18,16.10
2015,04,20,10,19,16.10
2015,04,20,10,20,16.10
2015,04,20,10,21,16.00
2015,04,20,10,22,16.00
2015,04,20,10,23,16.10
2015,04,20,10,24,16.20
2015,04,20,10,25,16.20
2015,04,20,10,26,16.30
2015,04,20,10,27,16.30
2015,04,20,10,28,16.40
2015,04,20,10,29,16.50
2015,04,20,10,30,16.50
2015,04,20,10,31,16.50
2015,04,20,10,32,16.60
2015,04,20,10,33,16.70
2015,04,20,10,34,16.80
2015,04,20,10,35,16.80
2015,04,20,10,36,16.70
2015,04,20,10,37,16.70
2015,04,20,10,38,16.80
2015,04,20,10,39,16.80
2015,04,20,10,40,16.80
2015,04,20,10,41,16.90
2015,04,20,10,42,16.90
2015,04,20,10,43,17.00
2015,04,20,10,44,17.10
2015,04,20,10,45,17.10
2015,04,20,10,46,17.10
2015,04,20,10,47,17.20
2015,04,20,10,48,17.30
2015,04,20,10,49,17.30
2015,04,20,10,50,17.20
2015,04,20,10,51,17.30
2015,04,20,10,52,17.30
2015,04,20,10,53,17.40
2015,04,20,10,54,17.40
2015,04,20,10,55,17.40
2015,04,20,10,56,17.40
2015,04,20,10,57,17.40
2015,04,20,10,58,17.40
2015,04,20,10,59,17.40
2015,04,20,11,00,17.40
2015,04,20,11,01,17.40
2015,04,20,11,02,17.40
2015,04,20,11,03,17.40
2015,04,20,11,04,17.30
2015,04,20,11,05,17.30
2015,04,20,11,06,17.30
2015,04,20,11,07,17.30
2015,04,20,11,08,17.40
2015,04,20,11,09,17.40
2015,04,20,11,10,17.40
2015,04,20,11,11,17.50
2015,04,20,11,12,17.50
2015,04,20,11,13,17.40
2015,04,20,11,14,17.30
2015,04,20,11,15,17.30
2015,04,20,11,16,17.30
2015,04,20,11,17,17.30
2015,04,20,11,18,17.30
2015,04,20,11,19,17.30
2015,04,20,11,20,17.30
2015,04,20,11,21,17.30
2015,04,20,11,22,17.40
2015,04,20,11,23,17.40
2015,04,20,11,24,17.50
2015,04,20,11,25,17.50
2015,04,20,11,26,17.50
2015,04,20,11,27,17.50
2015,04,20,11,28,17.60
2015,04,20,11,29,17.60
2015,04,20,11,30,17.60
2015,04,20,11,31,17.60
2015,04,20,11,32,17.60
2015,04,20,11,33,17.50
2015,04,20,11,34,17.50
2015,04,20,11,35,17.40
2015,04,20,11,36,17.50
2015,04,20,11,37,17.40
2015,04,20,11,38,17.50
2015,04,20,11,39,17.60
2015,04,20,11,40,17.60
2015,04,20,11,41,17.60
2015,04,20,11,42,17.60
2015,04,20,11,43,17.70
2015,04,20,11,44,17.60
2015,04,20,11,45,17.60
2015,04,20,11,46,17.70
2015,04,20,11,47,17.80
2015,04,20,11,48,17.80
2015,04,20,11,49,17.80
2015,04,20,11,50,17.80
2015,04,20,11,51,17.90
2015,04,20,11,52,17.90
2015,04,20,11,53,18.00
2015,04,20,11,54,18.10
2015,04,20,11,55,18.10
2015,04,20,11,56,18.20
2015,04,20,11,57,18.30
2015,04,20,11,58,18.30
2015,04,20,11,59,18.40
2015,04,20,12,00,18.30
2015,04,20,12,01,18.30
2015,04,20,12,02,18.30
2015,04,20,12,03,18.30
2015,04,20,12,04,18.30
2015,04,20,12,05,18.40
2015,04,20,12,06,18.40
2015,04,20,12,07,18.50
2015,04,20,12,08,18.50
2015,04,20,12,09,18.50
2015,04,20,12,10,18.40
2015,04,20,12,11,18.50
2015,04,20,12,12,18.50
2015,04,20,12,13,18.60
2015,04,20,12,14,18.80
2015,04,20,12,15,18.90
2015,04,20,12,16,18.90
2015,04,20,12,17,18.90
2015,04,20,12,18,18.80
2015,04,20,12,19,18.80
2015,04,20,12,20,18.80
2015,04,20,12,21,18.80
2015,04,20,12,22,18.70
2015,04,20,12,23,18.70
2015,04,20,12,24,18.70
2015,04,20,12,25,18.60
2015,04,20,12,26,18.60
2015,04,20,12,27,18.60
2015,04,20,12,28,18.50
2015,04,20,12,29,18.40
2015,04,20,12,30,18.30
2015,04,20,12,31,18.20
2015,04,20,12,32,18.10
2015,04,20,12,33,18.10
2015,04,20,12,34,18.00
2015,04,20,12,35,18.00
2015,04,20,12,36,18.00
2015,04,20,12,37,18.00
2015,04,20,12,38,18.10
2015,04,20,12,39,18.10
2015,04,20,12,40,18.10
2015,04,20,12,41,18.00
2015,04,20,12,42,17.90
2015,04,20,12,43,17.90
2015,04,20,12,44,17.90
2015,04,20,12,45,17.90
2015,04,20,12,46,18.00
2015,04,20,12,47,18.00
2015,04,20,12,48,18.10
2015,04,20,12,49,18.20
2015,04,20,12,50,18.20
2015,04,20,12,51,18.20
2015,04,20,12,52,18.10
2015,04,20,12,53,18.10
2015,04,20,12,54,18.00
2015,04,20,12,55,18.00
2015,04,20,12,56,18.10
2015,04,20,12,57,18.20
2015,04,20,12,58,18.20
2015,04,20,12,59,18.30
2015,04,20,13,00,18.30
2015,04,20,13,01,18.30
2015,04,20,13,02,18.40
2015,04,20,13,03,18.40
2015,04,20,13,04,18.40
2015,04,20,13,05,18.40
2015,04,20,13,06,18.40
2015,04,20,13,07,18.30
2015,04,20,13,08,18.30
2015,04,20,13,09,18.30
2015,04,20,13,10,18.30
2015,04,20,13,11,18.40
2015,04,20,13,12,18.60
2015,04,20,13,13,18.60
2015,04,20,13,14,18.60
2015,04,20,13,15,18.60
2015,04,20,13,16,18.60
2015,04,20,13,17,18.60
2015,04,20,13,18,18.60
2015,04,20,13,19,18.60
2015,04,20,13,20,18.60
2015,04,20,13,21,18.60
2015,04,20,13,22,18.70
2015,04,20,13,23,18.70
2015,04,20,13,24,18.80
2015,04,20,13,25,18.90
2015,04,20,13,26,19.00
2015,04,20,13,27,19.10
2015,04,20,13,28,19.20
2015,04,20,13,29,19.20
2015,04,20,13,30,19.10
2015,04,20,13,31,19.00
2015,04,20,13,32,18.90
2015,04,20,13,33,18.90
2015,04,20,13,34,18.90
2015,04,20,13,35,18.90
2015,04,20,13,36,18.90
2015,04,20,13,37,19.00
2015,04,20,13,38,19.10
2015,04,20,13,39,19.10
2015,04,20,13,40,19.10
2015,04,20,13,41,19.10
2015,04,20,13,42,19.10
2015,04,20,13,43,19.20
2015,04,20,13,44,19.20
2015,04,20,13,45,19.20
2015,04,20,13,46,19.20
2015,04,20,13,47,19.20
2015,04,20,13,48,19.30
2015,04,20,13,49,19.30
2015,04,20,13,50,19.30
2015,04,20,13,51,19.30
2015,04,20,13,52,19.40
2015,04,20,13,53,19.30
2015,04,20,13,54,19.30
2015,04,20,13,55,19.30
2015,04,20,13,56,19.40
2015,04,20,13,57,19.50
2015,04,20,13,58,19.50
2015,04,20,13,59,19.60
2015,04,20,14,00,19.60
2015,04,20,14,01,19.60
2015,04,20,14,02,19.50
2015,04,20,14,03,19.50
2015,04,20,14,04,19.50
2015,04,20,14,05,19.50
2015,04,20,14,06,19.40
2015,04,20,14,07,19.30
2015,04,20,14,08,19.30
2015,04,20,14,09,19.30
2015,04,20,14,10,19.30
2015,04,20,14,11,19.30
2015,04,20,14,12,19.40
2015,04,20,14,13,19.50
2015,04,20,14,14,19.40
2015,04,20,14,15,19.30
2015,04,20,14,16,19.20
2015,04,20,14,17,19.10
2015,04,20,14,18,19.10
2015,04,20,14,19,19.10
2015,04,20,14,20,19.20
2015,04,20,14,21,19.20
2015,04,20,14,22,19.20
2015,04,20,14,23,19.30
2015,04,20,14,24,19.20
2015,04,20,14,25,19.20
2015,04,20,14,26,19.20
2015,04,20,14,27,19.20
2015,04,20,14,28,19.30
2015,04,20,14,29,19.40
2015,04,20,14,30,19.40
2015,04,20,14,31,19.40
2015,04,20,14,32,19.50
2015,04,20,14,33,19.60
2015,04,20,14,34,19.60
2015,04,20,14,35,19.60
2015,04,20,14,36,19.50
2015,04,20,14,37,19.50
2015,04,20,14,38,19.50
2015,04,20,14,39,19.50
2015,04,20,14,40,19.60
2015,04,20,14,41,19.60
2015,04,20,14,42,19.70
2015,04,20,14,43,19.70
2015,04,20,14,44,19.80
2015,04,20,14,45,19.80
2015,04,20,14,46,19.70
2015,04,20,14,47,19.60
2015,04,20,14,48,19.50
2015,04,20,14,49,19.40
2015,04,20,14,50,19.30
2015,04,20,14,51,19.30
2015,04,20,14,52,19.30
2015,04,20,14,53,19.20
2015,04,20,14,54,19.20
2015,04,20,14,55,19.20
2015,04,20,14,56,19.20
2015,04,20,14,57,19.30
2015,04,20,14,58,19.40
2015,04,20,14,59,19.50
2015,04,20,15,00,19.40
2015,04,20,15,01,19.40
2015,04,20,15,02,19.40
2015,04,20,15,03,19.50
2015,04,20,15,04,19.40
2015,04,20,15,05,19.40
2015,04,20,15,06,19.40
2015,04,20,15,07,19.40
2015,04,20,15,08,19.40
2015,04,20,15,09,19.40
2015,04,20,15,10,19.40
2015,04,20,15,11,19.40
2015,04,20,15,12,19.40
2015,04,20,15,13,19.40
2015,04,20,15,14,19.40
2015,04,20,15,15,19.50
2015,04,20,15,16,19.50
2015,04,20,15,17,19.40
2015,04,20,15,18,19.40
2015,04,20,15,19,19.40
2015,04,20,15,20,19.30
2015,04,20,15,21,19.40
2015,04,20,15,22,19.30
2015,04,20,15,23,19.30
2015,04,20,15,24,19.40
2015,04,20,15,25,19.50
2015,04,20,15,26,19.60
2015,04,20,15,27,19.70
2015,04,20,15,28,19.70
2015,04,20,15,29,19.80
2015,04,20,15,30,19.90
2015,04,20,15,31,19.90
2015,04,20,15,32,19.80
2015,04,20,15,33,19.80
2015,04,20,15,34,19.80
2015,04,20,15,35,19.90
2015,04,20,15,36,19.90
2015,04,20,15,37,20.00
2015,04,20,15,38,20.10
2015,04,20,15,39,20.20
2015,04,20,15,40,20.30
2015,04,20,15,41,20.30
2015,04,20,15,42,20.30
2015,04,20,15,43,20.40
2015,04,20,15,44,20.50
2015,04,20,15,45,20.60
2015,04,20,15,46,20.70
2015,04,20,15,47,20.70
2015,04,20,15,48,20.80
2015,04,20,15,49,20.90
2015,04,20,15,50,21.00
2015,04,20,15,51,21.00
2015,04,20,15,52,21.10
2015,04,20,15,53,21.10
2015,04,20,15,54,21.10
2015,04,20,15,55,21.20
2015,04,20,15,56,21.20
2015,04,20,15,57,21.30
2015,04,20,15,58,21.40
2015,04,20,15,59,21.40
2015,04,20,16,00,21.40
2015,04,20,16,01,21.30
2015,04,20,16,02,21.30
2015,04,20,16,03,21.20
2015,04,20,16,04,21.20
2015,04,20,16,05,21.20
2015,04,20,16,06,21.10
2015,04,20,16,07,21.00
2015,04,20,16,08,20.90
2015,04,20,16,09,20.90
2015,04,20,16,10,20.80
2015,04,20,16,11,20.70
2015,04,20,16,12,20.70
2015,04,20,16,13,20.60
2015,04,20,16,14,20.60
2015,04,20,16,15,20.50
2015,04,20,16,16,20.50
2015,04,20,16,17,20.50
2015,04,20,16,18,20.40
2015,04,20,16,19,20.40
2015,04,20,16,20,20.40
2015,04,20,16,21,20.40
2015,04,20,16,22,20.40
2015,04,20,16,23,20.30
2015,04,20,16,24,20.30
2015,04,20,16,25,20.20
2015,04,20,16,26,20.20
2015,04,20,16,27,20.20
2015,04,20,16,28,20.20
2015,04,20,16,29,20.20
2015,04,20,16,30,20.20
2015,04,20,16,31,20.10
2015,04,20,16,32,20.10
2015,04,20,16,33,20.20
2015,04,20,16,34,20.20
2015,04,20,16,35,20.10
2015,04,20,16,36,20.10
2015,04,20,16,37,20.10
2015,04,20,16,38,20.00
2015,04,20,16,39,20.00
2015,04,20,16,40,20.00
2015,04,20,16,41,20.00
2015,04,20,16,42,20.00
2015,04,20,16,43,20.10
2015,04,20,16,44,20.10
2015,04,20,16,45,20.20
2015,04,20,16,46,20.20
2015,04,20,16,47,20.30
2015,04,20,16,48,20.20
2015,04,20,16,49,20.20
2015,04,20,16,50,20.20
2015,04,20,16,51,20.10
2015,04,20,16,52,20.10
2015,04,20,16,53,20.00
2015,04,20,16,54,19.90
2015,04,20,16,55,19.90
2015,04,20,16,56,19.90
2015,04,20,16,57,20.00
2015,04,20,16,58,19.90
2015,04,20,16,59,20.00
2015,04,20,17,00,20.00
2015,04,20,17,01,20.00
2015,04,20,17,02,20.00
2015,04,20,17,03,20.00
2015,04,20,17,04,20.00
2015,04,20,17,05,20.10
2015,04,20,17,06,20.10
2015,04,20,17,07,20.10
2015,04,20,17,08,20.00
2015,04,20,17,09,19.80
2015,04,20,17,10,19.70
2015,04,20,17,11,19.60
2015,04,20,17,12,19.50
2015,04,20,17,13,19.40
2015,04,20,17,14,19.30
2015,04,20,17,15,19.20
2015,04,20,17,16,19.20
2015,04,20,17,17,19.20
2015,04,20,17,18,19.10
2015,04,20,17,19,19.10
2015,04,20,17,20,19.00
2015,04,20,17,21,18.90
2015,04,20,17,22,18.80
2015,04,20,17,23,18.60
2015,04,20,17,24,18.40
2015,04,20,17,25,18.30
2015,04,20,17,26,18.20
2015,04,20,17,27,18.10
2015,04,20,17,28,17.90
2015,04,20,17,29,17.80
2015,04,20,17,30,17.70
2015,04,20,17,31,17.70
2015,04,20,17,32,17.70
2015,04,20,17,33,17.60
2015,04,20,17,34,17.50
2015,04,20,17,35,17.50
2015,04,20,17,36,17.40
2015,04,20,17,37,17.40
2015,04,20,17,38,17.40